Weather in Lisie Gori

Russia / Saratov Oblast     51°32′43″N   44°50′04″E
temp.,
°C
wind,
m/s
gust,
m/s
humid.,
%
clouds,
%
prec.,
mm/h
press.,
hPa
HPBL,
m
7 march, sun
sun701:00−9w379679 0.1 1014154
04:00−12wnw5109589 0.1 1015230
07:00−13wnw499590 0.0 1016171
10:00−11w489354 0.0 1017240
13:00−7wsw6109156 0.0 1016564
16:00−4sw7118378 0.0 1013995
19:00−4sw61583100 0.0 1010741
22:00−4sw91876100 0.0 1007824
8 march, mon
mon801:00−4sw101982100 0.0 1004973
04:00−3wsw101692100 0.4 1004910
07:00−3wsw71491100 0.3 1004646
10:00−3wsw6128681 0.3 1005603
13:00−2w3589100 0.2 1005499
16:000wsw71192100 1.8 1005954
19:00−3nw2597100 2.5 1005278
22:00−6w369299 2.7 1007104
9 march, tue
tue901:00−9wnw349155 0.0 100849
04:00−12wnw239139 0.0 100921
07:00−14nw339144 0.0 101023
10:00−11nw239141 0.0 1012141
13:00−8nw348875 0.0 1013327
16:00−8wnw458957 0.0 1014415
19:00−12wnw349563 0.0 101441
22:00−14nw349543 0.0 101658
10 march, wed
wed1001:00−16nw479646 0.0 101799
04:00−18wnw479630 0.0 101990
07:00−19nw47970 0.0 1020131
10:00−18nw589422 0.0 1021295
13:00−16nw578978 0.0 1023474
16:00−16nw578885 0.0 1024544
19:00−20nw489481 0.0 1025137
22:00−22nw349641 0.0 102783
11 march, thu
thu1101:00−24nnw33970 0.0 102827
04:00−25nnw33970 0.0 103022
07:00−26nnw33960 0.0 103024
10:00−22nnw23890 0.0 1032136
13:00−17wnw34780 0.0 1032315
16:00−16wnw35850 0.0 1032313
19:00−20wnw23920 0.0 103220
22:00−21wnw22870 0.0 103320